Accueil
METAR-TAF:

METAR-TAF

Aéroports :

Saint-Brieuc, France

Aéroport de Saint-Brieuc Armor

latitude: 48-32N, longitude: 002-51W, altitude: 138 m

Observation

Le bulletin a été fait il y a 24 minutes, à 09:30 UTC
Vent 10 kt de ouest
Température 20°C
Humidité 83%
Pression 1016 hPa
Visibilité 10 km ou plus
Quelques nuages à une hauteur de 1600 ft
Nuages fragmentés à une hauteur de 8200 ft
Ciel couvert à une hauteur de 11000 ft

METAR: LFRT 170930Z AUTO 27010KT 9999 FEW016 BKN082 OVC110 20/17 Q1016

Heure: 11:54 (09:54 UTC)


TAF: absent

Observations et prévisions météorologiques de plus de 4000 aéroports (messages METAR et TAF).

Les stations disponibles sont représentées par des disques jaunes et rouges sur la carte.

Passer la souris dessus pour voir le nom de la station.

Cliquer dessus pour voir les observations et prévisions météorologiques.

Pour changer de carte: cliquez sur les boutons verts avec une croix noire pour zoomer, sur le bouton vert avec un tiret pour effectuer un zoom arrière, ou sur les flèches vertes pour les cartes adjacentes.


METAR-TAF: